Tracking 26492 objects as of 8-Dec-2022
HD Live streaming from Space Station
objects crossing your sky now

STARLINK-5179

Track STARLINK-5179 now!
10-day predictions
STARLINK-5179 is classified as:


NORAD ID: 54102
Int'l Code: 2022-136BD
Perigee: 410.6 km
Apogee: 412.3 km
Inclination: 53.2 °
Period: 92.6 minutes
Semi major axis: 6782 km
RCS: Unknown
Launch date: October 20, 2022
Source: United States (US)
Launch site: AIR FORCE EASTERN TEST RANGE (AFETR)
aabbcc
Your satellite tracking list
Your tracking list is empty




NASA's NSSDC Master Catalog

Two Line Element Set (TLE):
1 54102U 22136BD  22342.00001157 -.01017369  00000-0 -16795-1 0  9991
2 54102  53.2175 268.9204 0001253  96.1829 122.0223 15.54242085  8101
Source of the keplerian elements: AFSPC